Location: Cassano d�Adda
(45.5333°N, 9.5167°E)
Time: 08:21:08
(UTC+00:00)

Cosmos 1627 Rocket - Pass Details

Date: 08 December 2019
Orbit: 951 x 1003 km, 82.9° (Epoch: 24 January)

Event Time Altitude Azimuth Distance (km) Brightness Sun altitude
Rises 17:30:33 0° 178° (S) 3,615 7.6 -18.8°
Reaches altitude 10° 17:33:03 10° 177° (S) 2,671 6.9 -19.3°
Maximum altitude 17:39:06 70° 94° (E) 1,010 4.3 -20.3°
Drops below altitude 10° 17:45:12 10° 13° (NNE) 2,694 6.6 -21.3°
Enters shadow 17:47:34 - 11° (N) 3,592 7.3 -21.8°
